格洛纳斯-712 COSMOS 1490 [GLONASS]

导读

**COSMOS 1490 (GLONASS)卫星摘要** COSMOS 1490(又称格洛纳斯-712)是独联体(CIS)发射的GLONASS全球导航卫星,于1983年8月10日在拜科努尔发射场由质子K火箭送入太空,属于苏联GLONASS导航计划早期部署卫星。它运行于约19100公里高度的中地球轨道,轨道倾角64.8°,质量1415千克,设计寿命3年,由苏联应用力学设计局研制。作为GLONASS系统组网卫星,服役期间为全球军事及民用领域提供定位导航服务,现已退役但仍在轨留存,是苏俄卫星导航系统发展进程中早期技术探索的关键节点。

Basic Information
目录编号:
14258
目录名称:
COSMOS 1490 (GLONASS)
国际标识:
1983-084A
轨道中心:
EARTH
卫星名称:
格洛纳斯-712
卫星全名:
格洛纳斯-712 COSMOS 1490 [GLONASS]
卫星状态:
在轨 (已飞行15651 天)
发射日期:
1983-08-10 UTC
国别 :
俄罗斯(独联体) (CIS)
星等 :
--
Orbit Information
数据来源 国际轨道数据 AOE轨道数据
星历时间 2026-06-15T05:42:41+0800
1天前
查看轨道信息
2026-06-16T03:00:00+0800
17小时前
查看轨道信息
半长轴 25507.937km 25507.921km
偏心率 0.0015679 0.0015684
轨道倾角 64.852° 64.852°
近地点辐角 16.443° 16.622°
升交点赤经 72.879° 72.848°
平近点角 167.165° 127.480°
近地点 19089.806km 19089.777km
远地点 19169.794km 19169.791km
周期 675.729分钟 675.729分钟
每日圈数 2.131031 2.131033
Detailed Information
平衡模式:
三轴稳定
覆盖范围:
全球
运营商:
列舍特涅夫卫星信息系统
运营商所在国:
俄罗斯
制造商(研发单位):
列舍特涅夫卫星信息系统
制造商所在国:
俄罗斯
使用方式:
暂无
Satellite Introduction
格洛纳斯(GLONASS )是苏联/俄罗斯研制卫星导航系统。标准配置为24颗卫星,其中18颗卫星就能保证该系统为俄罗斯境内用户提供全部服务。该卫星已退役。
2D Orbit Map
3D Orbit Map
Orbit Altitude Analysis Chart
Orbit Inclination Analysis Chart
Orbit Comprehensive Analysis Chart
View Comprehensive Chart